Milledgeville, GA

5:34 AM EST on December 09, 2019 (GMT -0500)
Baldwin County

Weather History for KMLJ - November, 2019

Change the Weather History Date:

Friday, November 22, 2019

  Actual Average (KOKZ) Record (KOKZ)
Temperature  
Mean Temperature 56 °F -  
Max Temperature 69 °F 63 °F 74 °F (2019)
Min Temperature 42 °F 39 °F 29 °F (2016)
Degree Days  
Heating Degree Days 10    
Growing Degree Days 6 (Base 50)    
Moisture  
Dew Point 49 °F    
Average Humidity 86    
Maximum Humidity 100    
Minimum Humidity 43    
Precipitation  
Precipitation 0.00 in - - ()
Sea Level Pressure  
Sea Level Pressure 30.10 in    
Wind  
Wind Speed 1 mph ()    
Max Wind Speed 7 mph    
Max Gust Speed -    
Visibility 8.6 miles    
Events      
Averages and records for this station are not official NWS values.
T = Trace of Precipitation, MM = Missing Value Source: Averaged Metar Reports

Daily Weather History Graph

Daily Weather History Graph

Search for Another Location

Airport or City:

Astronomy

Nov. 22, 2019 Rise Set
Actual Time 7:10 AM EST 5:27 PM EST
Civil Twilight 6:43 AM EST 5:54 PM EST
Nautical Twilight 6:13 AM EST 6:24 PM EST
Astronomical Twilight 5:43 AM EST 6:54 PM EST
Moon 2:33 AM EST (11/22) 3:11 PM EST (11/22)
Length of Visible Light 11h 11m
Length of Day
10h 17m
Waning Crescent, 20% of the Moon is Illuminated
Nov 22
Waning Crescent
Nov 26
New
Dec 4
First Quarter
Dec 12
Full
Dec 18
Last Quarter

Hourly Weather History & Observations

Time (EST) Temp. Dew Point Humidity Pressure Visibility Wind Dir Wind Speed Gust Speed Precip Events Conditions
12:15 AM 44.6 °F 44.6 °F 100% 30.17 in 10.0 mi Calm Calm - N/A   Clear
12:35 AM 44.6 °F 42.8 °F 93% 30.17 in 10.0 mi Calm Calm - N/A   Clear
12:55 AM 44.6 °F 44.6 °F 100% 30.17 in 7.0 mi Calm Calm - N/A   Clear
1:35 AM 44.6 °F 44.6 °F 100% 30.15 in 5.0 mi Calm Calm - N/A   Clear
1:55 AM 44.6 °F 44.6 °F 100% 30.15 in 7.0 mi Calm Calm - N/A   Clear
2:15 AM 44.6 °F 44.6 °F 100% 30.15 in 5.0 mi Calm Calm - N/A   Clear
2:35 AM 44.6 °F 44.6 °F 100% 30.15 in 5.0 mi Calm Calm - N/A   Clear
2:55 AM 42.8 °F 42.8 °F 100% 30.15 in 7.0 mi Calm Calm - N/A   Clear
3:15 AM 42.8 °F 42.8 °F 100% 30.14 in 10.0 mi Calm Calm - N/A   Clear
3:35 AM 44.6 °F 44.6 °F 100% 30.14 in 7.0 mi Calm Calm - N/A   Clear
3:55 AM 44.6 °F 44.6 °F 100% 30.13 in 7.0 mi Calm Calm - N/A   Clear
4:15 AM 44.6 °F 44.6 °F 100% 30.13 in 4.0 mi Calm Calm - N/A   Clear
4:35 AM 44.6 °F 44.6 °F 100% 30.12 in 5.0 mi Calm Calm - N/A   Clear
4:55 AM 44.6 °F 44.6 °F 100% 30.13 in 5.0 mi Calm Calm - N/A   Clear
5:15 AM 44.6 °F 44.6 °F 100% 30.12 in 4.0 mi Calm Calm - N/A   Clear
5:55 AM 42.8 °F 42.8 °F 100% 30.13 in 7.0 mi Calm Calm - N/A   Clear
6:15 AM 42.8 °F 42.8 °F 100% 30.13 in 7.0 mi Calm Calm - N/A   Clear
6:35 AM 42.8 °F 42.8 °F 100% 30.13 in 10.0 mi Calm Calm - N/A   Clear
6:55 AM 44.6 °F 44.6 °F 100% 30.14 in 7.0 mi Calm Calm - N/A   Clear
7:15 AM 44.6 °F 44.6 °F 100% 30.14 in 5.0 mi Calm Calm - N/A   Clear
7:35 AM 44.6 °F 44.6 °F 100% 30.14 in 4.0 mi Calm Calm - N/A   Clear
7:55 AM 44.6 °F 44.6 °F 100% 30.15 in 7.0 mi Calm Calm - N/A   Clear
8:15 AM 44.6 °F 44.6 °F 100% 30.16 in 5.0 mi Calm Calm - N/A   Clear
8:35 AM 46.4 °F 46.4 °F 100% 30.17 in 7.0 mi Calm Calm - N/A   Clear
8:55 AM 48.2 °F 48.2 °F 100% 30.16 in 10.0 mi Calm Calm - N/A   Clear
9:15 AM 50.0 °F 48.2 °F 94% 30.17 in 10.0 mi Calm Calm - N/A   Clear
9:35 AM 51.8 °F 50.0 °F 94% 30.17 in 10.0 mi Calm Calm - N/A   Clear
9:55 AM 53.6 °F 50.0 °F 88% 30.15 in 10.0 mi Calm Calm - N/A   Clear
10:15 AM 55.4 °F 51.8 °F 88% 30.17 in 10.0 mi West 3.5 mph - N/A   Mostly Cloudy
10:35 AM 57.2 °F 51.8 °F 82% 30.17 in 10.0 mi Calm Calm - N/A   Scattered Clouds
10:55 AM 59.0 °F 51.8 °F 77% 30.15 in 10.0 mi Calm Calm - N/A   Clear
11:15 AM 60.8 °F 53.6 °F 77% 30.13 in 10.0 mi Calm Calm - N/A   Clear
11:35 AM 62.6 °F 53.6 °F 72% 30.13 in 10.0 mi Calm Calm - N/A   Scattered Clouds
12:15 PM 64.4 °F 51.8 °F 64% 30.10 in 7.0 mi WSW 5.8 mph - N/A   Clear
12:35 PM 66.2 °F 51.8 °F 60% 30.09 in 10.0 mi West 6.9 mph - N/A   Clear
12:55 PM 68.0 °F 50.0 °F 52% 30.08 in 10.0 mi WSW 6.9 mph - N/A   Clear
1:15 PM 69.8 °F 46.4 °F 43% 30.07 in 10.0 mi WSW 5.8 mph - N/A   Clear
1:35 PM 68.0 °F 46.4 °F 46% 30.06 in 10.0 mi West 6.9 mph - N/A   Clear
1:55 PM 69.8 °F 46.4 °F 43% 30.05 in 10.0 mi SW 4.6 mph - N/A   Clear
2:15 PM 68.0 °F 48.2 °F 49% 30.04 in 10.0 mi SW 4.6 mph - N/A   Clear
3:15 PM 68.0 °F 50.0 °F 52% 30.04 in 10.0 mi WSW 3.5 mph - N/A   Scattered Clouds
3:55 PM 68.0 °F 51.8 °F 56% 30.04 in 10.0 mi Calm Calm - N/A   Mostly Cloudy
4:55 PM 66.2 °F 53.6 °F 64% 30.03 in 10.0 mi Calm Calm - N/A   Overcast
5:15 PM 62.6 °F 53.6 °F 72% 30.03 in 10.0 mi Calm Calm - N/A   Scattered Clouds
5:35 PM 60.8 °F 53.6 °F 77% 30.02 in 10.0 mi Calm Calm - N/A   Mostly Cloudy
5:55 PM 60.8 °F 53.6 °F 77% 30.03 in 10.0 mi Calm Calm - N/A   Scattered Clouds
6:15 PM 59.0 °F 53.6 °F 82% 30.03 in 10.0 mi Calm Calm - N/A   Scattered Clouds
6:35 PM 59.0 °F 53.6 °F 82% 30.04 in 10.0 mi Calm Calm - N/A   Mostly Cloudy
6:55 PM 59.0 °F 55.4 °F 88% 30.04 in 10.0 mi Calm Calm - N/A   Scattered Clouds
7:15 PM 59.0 °F 55.4 °F 88% 30.04 in 10.0 mi Calm Calm - N/A   Scattered Clouds
7:35 PM 59.0 °F 55.4 °F 88% 30.04 in 10.0 mi Calm Calm - N/A   Mostly Cloudy
7:55 PM 59.0 °F 55.4 °F 88% 30.03 in 10.0 mi Calm Calm - N/A   Mostly Cloudy
8:15 PM 59.0 °F 55.4 °F 88% 30.03 in 10.0 mi Calm Calm - N/A   Mostly Cloudy
8:35 PM 59.0 °F 55.4 °F 88% 30.03 in 10.0 mi Calm Calm - N/A   Overcast
8:55 PM 59.0 °F 55.4 °F 88% 30.02 in 10.0 mi Calm Calm - N/A   Scattered Clouds
9:15 PM 59.0 °F 55.4 °F 88% 30.02 in 10.0 mi Calm Calm - N/A   Clear
9:35 PM 59.0 °F 53.6 °F 82% 30.02 in 10.0 mi Calm Calm - N/A   Clear
9:55 PM 57.2 °F 53.6 °F 88% 30.03 in 10.0 mi Calm Calm - N/A   Clear
10:15 PM 55.4 °F 53.6 °F 94% 30.03 in 10.0 mi Calm Calm - N/A   Clear
10:35 PM 55.4 °F 53.6 °F 94% 30.03 in 10.0 mi Calm Calm - N/A   Clear
10:55 PM 55.4 °F 53.6 °F 94% 30.02 in 10.0 mi Calm Calm - N/A   Scattered Clouds
11:15 PM 55.4 °F 53.6 °F 94% 30.02 in 10.0 mi Calm Calm - N/A   Clear
11:35 PM 53.6 °F 53.6 °F 100% 30.02 in 10.0 mi Calm Calm - N/A   Clear